User: anonymous   Login
Location: ASU Dark Sky Observatory
(36.2504°N, 81.4125°W)
Time: 12:06:55
(UTC-05:00)
Language:

ETS-7 - Orbit

View from above orbital plane
View from above orbital plane
View from above satellite
View from above satellite

Ground track
Ground track

The orbit data is extracted from the following two-line orbital elements,

1 25064U 97074B   14355.81280404  .00049752  00000-0  63930-3 0  3343
2 25064 034.9596 114.2027 0004292 055.9679 078.8040 15.57973088950341
Epoch (UTC): 21 December 2014 19:30:26
Eccentricity: 0.0004292
inclination: 34.9596°
perigee height: 390 km
apogee height: 396 km
right ascension of ascending node: 114.2027°
argument of perigee: 55.9679°
revolutions per day: 15.57973088
mean anomaly at epoch: 78.8040°
orbit number at epoch: 95034

The dashed part of the orbit path shows where the satellite is in the earth's shadow,  

DLR